Track STARLINK-1940 now! 10-day predictions STARLINK-1940 is classified as:
1 47552U 21009E 22180.52540164 -.00000318 00000-0 -24332-5 0 9998 2 47552 53.0560 308.2631 0001428 66.6227 293.4912 15.06380166 77584